FW9036 Weather Reports


time (UTC)temp
F
wind
direction
speed
knots
gust
knots
rain 1hr
in
rain 24hr
in
rain mn
in
humidity
%
barometer
mb
20260831072000 78 144 0.0 0.0 0.00 0.00 0.00 94 1015.5
20260831071459 78 144 0.0 0.0 0.00 0.00 0.00 93 1015.7
20260831070954 78 198 0.0 0.0 0.00 0.00 0.00 93 1015.5
20260831070453 79 198 0.0 0.0 0.00 0.00 0.00 92 1015.6
20260831065952 79 31 0.0 0.0 0.00 0.00 0.00 92 1015.8
20260831065450 79 31 0.0 0.0 0.00 0.00 0.00 92 1015.7
20260831064945 79 31 0.0 0.0 0.00 0.00 0.00 92 1015.7
20260831064440 79 18 0.0 0.9 0.00 0.00 0.00 93 1015.9
20260831063936 79 123 0.0 0.0 0.00 0.00 0.00 92 1015.7
20260831063431 79 123 0.0 0.0 0.00 0.00 0.00 92 1015.7
20260831062925 79 6 0.0 0.0 0.00 0.00 0.00 92 1015.7
20260831062421 79 30 0.0 0.9 0.00 0.00 0.00 92 1016.0
20260831061920 79 176 0.0 0.0 0.00 0.00 0.00 91 1016.0
20260831061419 79 110 0.0 0.0 0.00 0.00 0.00 91 1015.9
20260831060915 79 112 0.0 0.0 0.00 0.00 0.00 91 1015.8
20260831060410 79 98 0.0 0.0 0.00 0.00 0.00 91 1015.9
20260831055909 79 98 0.0 0.0 0.00 0.00 0.00 91 1016.0
20260831055404 79 29 0.0 0.0 0.00 0.00 0.00 91 1016.2
20260831054859 78 265 0.0 0.0 0.00 0.00 0.00 91 1016.2
20260831054354 79 116 0.0 0.9 0.00 0.00 0.00 91 1016.3
20260831053853 79 31 0.0 0.0 0.00 0.00 0.00 91 1016.3
20260831053352 79 3 0.0 0.0 0.00 0.00 0.00 91 1016.4
20260831052847 79 196 0.0 0.9 0.00 0.00 0.00 90 1016.3
20260831052346 79 36 0.0 0.0 0.00 0.00 0.00 90 1016.2
20260831051844 79 36 0.0 0.0 0.00 0.00 0.00 90 1016.4
20260831051343 79 290 0.0 0.0 0.00 0.00 0.00 90 1016.3
20260831050838 79 250 0.0 0.0 0.00 0.00 0.00 90 1016.1
20260831050337 79 18 0.0 0.9 0.00 0.00 0.00 90 1016.4
20260831045832 79 290 0.0 0.0 0.00 0.00 0.00 90 1016.4
20260831045326 79 123 0.0 0.0 0.00 0.00 0.00 90 1016.2
20260831044821 79 31 0.9 0.9 0.00 0.00 0.00 90 1016.0
20260831044316 79 180 0.0 0.0 0.00 0.00 0.00 90 1016.2
20260831043813 79 205 0.0 0.0 0.00 0.00 0.00 89 1016.3
20260831043312 80 190 0.9 1.7 0.00 0.00 0.00 88 1016.1
20260831042807 80 16 0.9 1.7 0.00 0.00 0.00 88 1016.0
20260831042307 80 25 0.0 0.0 0.00 0.00 0.00 88 1016.4
20260831041802 79 212 0.0 0.0 0.00 0.00 0.00 88 1016.4
20260831041301 79 211 0.0 0.0 0.00 0.00 0.00 88 1016.3
20260831040756 79 33 0.0 0.0 0.00 0.00 0.00 88 1016.4
20260831040255 79 250 0.0 0.0 0.00 0.00 0.00 88 1016.2
20260831035754 80 127 0.0 0.0 0.00 0.00 0.00 87 1016.4
20260831035253 80 38 0.0 0.0 0.00 0.00 0.00 87 1016.4
20260831034752 80 216 0.9 0.9 0.00 0.00 0.00 86 1016.4
20260831034248 80 6 0.0 1.7 0.00 0.00 0.00 86 1016.4
20260831033743 80 262 0.0 1.7 0.00 0.00 0.00 86 1016.5
20260831033243 80 3 0.0 1.7 0.00 0.00 0.00 85 1016.4
20260831032738 80 113 0.0 0.9 0.00 0.00 0.00 85 1016.7
20260831032233 80 73 0.0 0.9 0.00 0.00 0.00 85 1016.6
20260831031728 80 259 0.9 0.9 0.00 0.00 0.00 84 1016.6
20260831031223 80 55 0.9 0.9 0.00 0.00 0.00 84 1016.8
20260831030722 80 31 0.0 0.0 0.00 0.00 0.00 84 1016.9
20260831030221 80 110 0.0 0.9 0.00 0.00 0.00 83 1016.8
20260831025720 80 193 0.0 0.0 0.00 0.00 0.00 83 1017.1
20260831025214 80 127 0.0 0.0 0.00 0.00 0.00 82 1017.2
20260831024710 80 285 0.0 0.9 0.00 0.00 0.00 82 1016.9
20260831024204 80 176 0.0 1.7 0.00 0.00 0.00 81 1017.2
20260831023702 80 250 0.0 0.0 0.00 0.00 0.00 82 1017.2
20260831023201 80 341 0.0 1.7 0.00 0.00 0.00 83 1017.0
20260831022656 80 202 0.9 1.7 0.00 0.00 0.00 84 1016.9
20260831022151 80 127 0.0 0.9 0.00 0.00 0.00 85 1016.8
20260831021650 80 43 0.0 1.7 0.00 0.00 0.00 85 1016.9
20260831021145 81 193 0.0 0.9 0.00 0.00 0.00 85 1016.9
20260831020642 80 108 0.0 1.7 0.00 0.00 0.00 86 1016.9
20260831020136 80 113 0.0 1.7 0.00 0.00 0.00 87 1016.9
20260831015632 80 250 0.0 0.9 0.00 0.00 0.00 86 1016.8
20260831015131 80 205 0.0 0.9 0.00 0.00 0.00 86 1016.8
20260831014626 80 95 0.0 0.9 0.00 0.00 0.00 86 1016.6
20260831014121 81 176 0.0 0.0 0.00 0.00 0.00 87 1016.8
20260831013618 81 30 0.9 0.9 0.00 0.00 0.00 87 1016.8
20260831013117 81 61 0.0 0.9 0.00 0.00 0.00 86 1016.7
20260831012612 81 190 0.0 0.9 0.00 0.00 0.00 86 1016.7
20260831012107 81 146 0.0 0.9 0.00 0.00 0.00 85 1016.8
20260831011606 81 318 0.0 2.6 0.00 0.00 0.00 85 1016.6
20260831011102 81 43 0.0 0.0 0.00 0.00 0.00 85 1016.6
20260831010557 81 101 0.9 1.7 0.00 0.00 0.00 85 1016.7
20260831010054 81 278 0.0 0.9 0.00 0.00 0.00 85 1016.5
20260831005548 81 123 0.0 1.7 0.00 0.00 0.00 84 1016.8
20260831005048 81 153 0.0 1.7 0.00 0.00 0.00 83 1016.4
20260831004544 81 163 0.0 0.9 0.00 0.00 0.00 82 1016.6
20260831004039 81 1 0.0 0.0 0.00 0.00 0.00 82 1016.9
20260831003536 81 18 0.0 0.0 0.00 0.00 0.00 81 1016.7
20260831003031 81 181 0.0 0.9 0.00 0.00 0.00 81 1016.3
20260831002529 81 236 0.0 0.9 0.00 0.00 0.00 81 1016.4
20260831002025 81 84 0.0 1.7 0.00 0.00 0.00 81 1016.2
20260831001521 81 264 0.0 0.9 0.00 0.00 0.00 80 1016.5
20260831001017 82 223 0.0 1.7 0.00 0.00 0.00 79 1016.5
20260831000513 82 60 0.0 1.7 0.00 0.00 0.00 78 1016.2
20260831000012 82 127 0.0 0.9 0.00 0.00 0.00 78 1016.3
20260830235512 82 110 1.7 1.7 0.00 0.00 0.00 77 1016.1
20260830235007 82 236 0.0 0.9 0.00 0.00 0.00 77 1016.0
20260830234502 83 296 0.0 0.0 0.00 0.00 0.00 78 1016.2
20260830233957 83 193 0.0 1.7 0.00 0.00 0.00 77 1016.3
20260830233453 83 346 0.0 1.7 0.00 0.00 0.00 76 1016.2
20260830232948 84 56 0.9 1.7 0.00 0.00 0.00 75 1016.2
20260830232444 84 255 0.9 0.9 0.00 0.00 0.00 74 1016.3
20260830231941 85 47 0.9 1.7 0.00 0.00 0.00 74 1016.1
20260830231436 85 107 1.7 2.6 0.00 0.00 0.00 72 1016.2
20260830230935 86 158 0.9 2.6 0.00 0.00 0.00 72 1015.9
20260830230431 87 201 0.0 2.6 0.00 0.00 0.00 70 1015.8
20260830225930 87 208 2.6 2.6 0.00 0.00 0.00 69 1015.9
20260830225426 88 92 0.0 1.7 0.00 0.00 0.00 67 1016.0
20260830224926 87 198 0.9 1.7 0.00 0.00 0.00 69 1016.0
20260830224424 87 124 1.7 2.6 0.00 0.00 0.00 70 1016.1
20260830223921 87 96 0.9 3.5 0.00 0.00 0.00 70 1016.0
20260830223418 86 169 0.9 3.5 0.00 0.00 0.00 70 1015.8
20260830222916 87 137 5.2 5.2 0.00 0.00 0.00 70 1015.8
20260830222412 87 129 0.9 3.5 0.00 0.00 0.00 70 1015.6
20260830221908 87 166 3.5 3.5 0.00 0.00 0.00 71 1015.6
20260830221404 87 113 1.7 4.3 0.00 0.00 0.00 72 1015.5
20260830220859 86 145 1.7 2.6 0.00 0.00 0.00 74 1015.5
20260830220359 87 73 1.7 3.5 0.00 0.00 0.00 72 1015.6
20260830215856 86 89 1.7 2.6 0.00 0.00 0.00 72 1015.5
20260830215356 86 152 1.7 1.7 0.00 0.00 0.00 73 1015.5
20260830214851 86 100 0.0 2.6 0.00 0.00 0.00 72 1015.6
20260830214347 86 152 0.0 1.7 0.00 0.00 0.00 72 1015.3
20260830213841 87 84 0.0 2.6 0.00 0.00 0.00 71 1015.5
20260830213336 88 129 1.7 2.6 0.00 0.00 0.00 70 1015.5
20260830212832 89 33 2.6 3.5 0.00 0.00 0.00 68 1015.4
20260830212328 90 56 1.7 2.6 0.00 0.00 0.00 66 1015.6
20260830211826 90 142 2.6 2.6 0.00 0.00 0.00 66 1015.4
20260830211321 90 75 0.0 3.5 0.00 0.00 0.00 66 1015.3
20260830210817 89 67 0.9 2.6 0.00 0.00 0.00 67 1015.3
20260830210316 89 82 1.7 3.5 0.00 0.00 0.00 68 1015.4
20260830205814 89 102 2.6 4.3 0.00 0.00 0.00 69 1015.5
20260830205313 90 118 2.6 3.5 0.00 0.00 0.00 65 1015.4
20260830204809 91 180 2.6 2.6 0.00 0.00 0.00 65 1015.6
20260830204308 91 108 3.5 3.5 0.00 0.00 0.00 65 1015.6
20260830203804 92 114 1.7 7.8 0.00 0.00 0.00 64 1015.8
20260830203300 91 67 0.9 2.6 0.00 0.00 0.00 62 1015.8
20260830202759 91 31 2.6 3.5 0.00 0.00 0.00 63 1015.6
20260830202254 90 41 2.6 3.5 0.00 0.00 0.00 62 1015.9
20260830201754 91 51 2.6 4.3 0.00 0.00 0.00 62 1016.2
20260830201249 91 33 2.6 4.3 0.00 0.00 0.00 63 1016.2
20260830200745 90 72 1.7 2.6 0.00 0.00 0.00 63 1016.2
20260830200243 91 79 1.7 2.6 0.00 0.00 0.00 63 1016.2
20260830195740 92 91 0.0 2.6 0.00 0.00 0.00 61 1016.4
20260830195238 91 56 1.7 2.6 0.00 0.00 0.00 61 1016.5
20260830194736 91 108 1.7 3.5 0.00 0.00 0.00 61 1016.3
20260830194231 92 129 1.7 3.5 0.00 0.00 0.00 62 1016.4
20260830193726 92 157 1.7 3.5 0.00 0.00 0.00 60 1016.6
20260830193220 92 116 1.7 3.5 0.00 0.00 0.00 61 1016.7
20260830192716 91 32 3.5 4.3 0.00 0.00 0.00 61 1016.5
20260830192211 91 0 1.7 4.3 0.00 0.00 0.00 61 1016.6
20260830191707 91 23 3.5 4.3 0.00 0.00 0.00 59 1016.5
20260830191201 91 31 3.5 6.1 0.00 0.00 0.00 58 1016.5
20260830190656 91 128 0.0 2.6 0.00 0.00 0.00 59 1016.5
20260830190151 92 101 1.7 3.5 0.00 0.00 0.00 58 1016.2
20260830185649 92 97 2.6 3.5 0.00 0.00 0.00 58 1016.3
20260830185146 92 96 0.9 3.5 0.00 0.00 0.00 58 1016.7
20260830184644 92 82 1.7 3.5 0.00 0.00 0.00 58 1016.5
20260830184139 92 107 1.7 2.6 0.00 0.00 0.00 59 1016.7
20260830183634 93 163 0.9 1.7 0.00 0.00 0.00 59 1016.6
20260830183129 91 100 2.6 4.3 0.00 0.00 0.00 60 1016.7
20260830182624 93 83 1.7 2.6 0.00 0.00 0.00 56 1016.8
20260830182120 92 144 3.5 7.0 0.00 0.00 0.00 56 1016.6
20260830181616 91 106 0.9 3.5 0.00 0.00 0.00 58 1016.7
20260830181116 92 43 3.5 4.3 0.00 0.00 0.00 55 1017.1
20260830180615 93 86 2.6 3.5 0.00 0.00 0.00 54 1016.9
20260830180115 93 35 1.7 2.6 0.00 0.00 0.00 56 1017.0
20260830175613 92 77 1.7 4.3 0.00 0.00 0.00 60 1017.0
20260830175109 92 118 2.6 2.6 0.00 0.00 0.00 58 1016.9
20260830174604 91 136 2.6 4.3 0.00 0.00 0.00 58 1017.2
20260830174100 91 56 0.9 5.2 0.00 0.00 0.00 57 1017.2
20260830173555 91 99 2.6 4.3 0.00 0.00 0.00 57 1017.1
20260830173050 92 35 1.7 4.3 0.00 0.00 0.00 57 1017.1
20260830172547 92 342 0.9 2.6 0.00 0.00 0.00 56 1017.3
20260830172043 92 94 1.7 3.5 0.00 0.00 0.00 55 1017.4
20260830171538 92 101 0.0 2.6 0.00 0.00 0.00 56 1017.2
20260830171033 91 81 1.7 2.6 0.00 0.00 0.00 56 1017.2
20260830170532 91 72 0.9 3.5 0.00 0.00 0.00 55 1017.4
20260830170032 91 107 0.9 2.6 0.00 0.00 0.00 57 1017.2
20260830165527 91 117 1.7 2.6 0.00 0.00 0.00 58 1017.3
20260830165023 91 62 2.6 3.5 0.00 0.00 0.00 59 1017.7
20260830164518 91 72 1.7 2.6 0.00 0.00 0.00 59 1017.6
20260830164014 90 94 0.0 2.6 0.00 0.00 0.00 59 1017.8
20260830163511 90 50 0.9 3.5 0.00 0.00 0.00 58 1018.0
20260830163010 90 26 2.6 3.5 0.00 0.00 0.00 57 1017.9
20260830162507 89 172 0.0 2.6 0.00 0.00 0.00 57 1017.8
20260830162006 89 30 1.7 3.5 0.00 0.00 0.00 59 1017.7
20260830161501 88 46 1.7 4.3 0.00 0.00 0.00 59 1017.9
20260830160956 89 123 0.0 2.6 0.00 0.00 0.00 57 1018.0
20260830160453 89 128 1.7 2.6 0.00 0.00 0.00 61 1018.0
20260830155953 89 170 0.9 3.5 0.00 0.00 0.00 60 1018.1
20260830155450 89 146 0.9 1.7 0.00 0.00 0.00 60 1018.2
20260830154944 89 128 0.9 1.7 0.00 0.00 0.00 61 1018.1
20260830154440 89 26 1.7 2.6 0.00 0.00 0.00 61 1018.0
20260830153936 88 43 0.9 2.6 0.00 0.00 0.00 60 1018.2
20260830153432 87 155 0.0 0.9 0.00 0.00 0.00 63 1018.3
20260830152931 87 260 1.7 2.6 0.00 0.00 0.00 63 1018.2
20260830152426 87 4 0.9 2.6 0.00 0.00 0.00 63 1018.1
20260830151925 87 314 0.9 5.2 0.00 0.00 0.00 63 1018.2
20260830151425 86 353 1.7 2.6 0.00 0.00 0.00 65 1018.3
20260830150920 86 315 1.7 2.6 0.00 0.00 0.00 68 1018.0
20260830150420 86 111 1.7 1.7 0.00 0.00 0.00 69 1018.0
20260830145914 85 73 0.9 2.6 0.00 0.00 0.00 68 1018.1
20260830145409 85 115 0.0 0.9 0.00 0.00 0.00 69 1017.9
20260830144904 85 351 0.0 2.6 0.00 0.00 0.00 71 1018.1
20260830144400 85 86 0.9 1.7 0.00 0.00 0.00 71 1017.9
20260830143855 84 31 0.0 1.7 0.00 0.00 0.00 71 1018.0
20260830143350 85 319 0.9 2.6 0.00 0.00 0.00 72 1017.9
20260830142849 84 12 0.0 2.6 0.00 0.00 0.00 73 1018.0
20260830142344 84 132 0.0 0.9 0.00 0.00 0.00 74 1018.0
20260830141839 84 78 0.0 3.5 0.00 0.00 0.00 73 1018.0
20260830141334 84 211 0.0 2.6 0.00 0.00 0.00 73 1018.4
20260830140830 84 161 1.7 1.7 0.00 0.00 0.00 76 1018.1
20260830140325 83 183 0.0 2.6 0.00 0.00 0.00 76 1018.2
20260830135819 83 50 0.9 1.7 0.00 0.00 0.00 76 1018.1
20260830135314 83 198 0.0 0.9 0.00 0.00 0.00 77 1018.0
20260830134810 83 180 0.9 0.9 0.00 0.00 0.00 78 1018.1
20260830134310 83 347 0.0 1.7 0.00 0.00 0.00 79 1018.1
20260830133806 82 109 0.0 1.7 0.00 0.00 0.00 79 1018.0
20260830133301 82 229 1.7 2.6 0.00 0.00 0.00 80 1018.0
20260830132757 82 265 0.0 0.0 0.00 0.00 0.00 81 1018.1
20260830132253 82 8 0.0 2.6 0.00 0.00 0.00 82 1018.0
20260830131751 81 127 0.0 2.6 0.00 0.00 0.00 83 1018.0
20260830131246 81 216 0.0 1.7 0.00 0.00 0.00 85 1018.1
20260830130742 81 70 0.0 0.0 0.00 0.00 0.00 85 1017.9
20260830130241 81 31 0.0 0.0 0.00 0.00 0.00 85 1018.0
20260830125736 80 101 0.0 2.6 0.00 0.00 0.00 86 1017.9
20260830125231 80 105 0.0 0.9 0.00 0.00 0.00 88 1017.7
20260830124728 80 17 0.9 0.9 0.00 0.00 0.00 87 1017.6
20260830124224 79 262 0.0 0.9 0.00 0.00 0.00 88 1017.7
20260830123721 79 108 0.0 0.9 0.00 0.00 0.00 88 1017.6
20260830123217 79 36 0.0 0.9 0.00 0.00 0.00 88 1017.6
20260830122714 79 176 0.0 0.9 0.00 0.00 0.00 88 1017.7
20260830122209 78 342 1.7 1.7 0.00 0.00 0.00 88 1017.5
20260830121704 78 33 0.9 1.7 0.00 0.00 0.00 88 1017.4
20260830121204 78 125 0.9 0.9 0.00 0.00 0.00 89 1017.6
20260830120658 78 13 1.7 1.7 0.00 0.00 0.00 89 1017.6
20260830120155 77 183 0.0 0.9 0.00 0.00 0.00 89 1017.6
20260830115651 77 43 0.0 0.9 0.00 0.00 0.00 89 1017.4
20260830115146 77 123 0.0 0.0 0.00 0.00 0.00 90 1017.5
20260830114643 77 264 0.0 0.0 0.00 0.00 0.00 89 1017.5
20260830114142 77 15 0.9 0.9 0.00 0.00 0.00 89 1017.3
20260830113632 77 205 0.0 0.9 0.00 0.00 0.00 89 1017.3
20260830113127 77 193 0.0 0.0 0.00 0.00 0.00 89 1017.2
20260830112624 77 85 0.0 0.0 0.00 0.00 0.00 89 1017.3
20260830112119 76 153 0.0 0.0 0.00 0.00 0.00 89 1017.0
20260830111615 76 278 0.0 0.0 0.00 0.00 0.00 90 1017.3
20260830111110 76 161 0.0 0.0 0.00 0.00 0.00 90 1017.3
20260830110610 77 49 0.0 0.0 0.00 0.00 0.00 89 1017.1
20260830110106 77 144 0.0 0.0 0.00 0.00 0.00 89 1017.0
20260830105600 77 18 0.0 0.0 0.00 0.00 0.00 89 1017.0
20260830105057 77 98 0.0 0.0 0.00 0.00 0.00 89 1016.9
20260830104554 77 100 0.0 0.0 0.00 0.00 0.00 88 1016.5
20260830104050 77 100 0.0 0.9 0.00 0.00 0.00 87 1016.7
20260830103549 77 315 0.0 0.9 0.00 0.00 0.00 87 1016.5
20260830103048 77 271 0.0 0.0 0.00 0.00 0.00 87 1016.9
20260830102543 77 134 0.0 0.0 0.00 0.00 0.00 87 1016.6
20260830102039 77 186 0.0 0.0 0.00 0.00 0.00 87 1016.2
20260830101534 77 105 0.0 0.0 0.00 0.00 0.00 88 1016.5
20260830101034 77 332 0.0 0.0 0.00 0.00 0.00 88 1016.4
20260830100528 77 265 0.0 0.0 0.00 0.00 0.00 88 1016.0
20260830100027 77 302 0.0 0.9 0.00 0.00 0.00 88 1015.9
20260830095522 77 81 0.0 0.9 0.00 0.00 0.00 87 1016.1
20260830095018 78 239 0.9 0.9 0.00 0.00 0.00 89 1016.1
20260830094514 78 230 0.0 1.7 0.00 0.00 0.00 89 1015.9
20260830094009 78 130 0.0 0.9 0.00 0.00 0.00 90 1016.3
20260830093504 78 274 0.0 0.9 0.00 0.00 0.00 92 1016.2
20260830093001 78 95 0.9 1.7 0.00 0.00 0.00 95 1016.1
20260830092500 78 70 0.0 2.6 0.00 0.00 0.00 96 1016.0
20260830091957 78 303 0.0 0.9 0.00 0.00 0.00 95 1015.9
20260830091452 78 3 0.0 0.0 0.00 0.00 0.00 95 1016.2
20260830090951 78 250 0.0 0.9 0.00 0.00 0.00 95 1016.0
20260830090446 78 113 1.7 1.7 0.00 0.00 0.00 95 1016.0
20260830085941 78 104 0.0 0.9 0.00 0.00 0.00 95 1016.0
20260830085436 79 236 0.0 0.9 0.00 0.00 0.00 94 1016.2
20260830084932 79 290 0.0 0.0 0.00 0.00 0.00 94 1016.3
20260830084427 79 290 0.0 0.0 0.00 0.00 0.00 94 1016.3
20260830083922 79 98 0.0 0.0 0.00 0.00 0.00 93 1016.1
20260830083418 79 70 0.0 1.7 0.00 0.00 0.00 94 1016.3
20260830082917 79 155 0.0 0.0 0.00 0.00 0.00 94 1016.3
20260830082413 79 6 0.0 0.9 0.00 0.00 0.00 94 1016.2
20260830081908 79 276 0.9 0.9 0.00 0.00 0.00 94 1016.5
20260830081403 79 135 0.9 0.9 0.00 0.00 0.00 94 1016.4
20260830080902 78 134 0.0 0.0 0.00 0.00 0.00 94 1016.6
20260830080359 78 134 0.0 0.0 0.00 0.00 0.00 94 1016.6
20260830075857 78 127 0.0 0.0 0.00 0.00 0.00 94 1016.5
20260830075353 78 127 0.0 0.0 0.00 0.00 0.00 94 1016.9
20260830074848 78 127 0.0 0.0 0.00 0.00 0.00 95 1016.9
20260830074343 78 127 0.0 0.0 0.00 0.00 0.00 95 1016.8
20260830073839 78 83 0.0 0.0 0.00 0.00 0.00 95 1017.0
20260830073335 78 83 0.0 0.0 0.00 0.00 0.00 95 1017.1
20260830072830 78 83 0.0 0.0 0.00 0.00 0.00 95 1016.8